Weather History for KPSP - January, 2011

Change the Weather History Date:

Thursday, January 6, 2011

  Actual Average Record
Temperature  
Mean Temperature 55 °F 57 °F  
Max Temperature 68 °F 68 °F 82 °F (1948)
Min Temperature 41 °F 45 °F 26 °F (1950)
Degree Days  
Heating Degree Days 10 9  
Month to date heating degree days 97 54  
Since 1 July heating degree days 422 440  
Cooling Degree Days 0 0  
Month to date cooling degree days 0 0  
Year to date cooling degree days 0 0  
Growing Degree Days 4 (Base 50)    
Moisture  
Dew Point 28 °F    
Average Humidity 38    
Maximum Humidity 62    
Minimum Humidity 14    
Precipitation  
Precipitation 0.00 in 0.04 in 1.14 in (1993)
Month to date precipitation 0.01 0.31  
Year to date precipitation 0.01 0.31  
Since 1 July precipitation 4.28 3.11  
Snow  
Snow 0.00 in - - ()
Month to date snowfall 0.0  
Year to date snowfall 0.0  
Since 1 July snowfall 0.0  
Snow Depth 0.00 in    
Sea Level Pressure  
Sea Level Pressure 30.17 in    
Wind  
Wind Speed 3 mph (NNW)    
Max Wind Speed 9 mph    
Max Gust Speed 12 mph    
Visibility 10 miles    
Events      
T = Trace of Precipitation, MM = Missing Value Source: NWS Daily Summary

Daily Weather History Graph

Daily Weather History Graph

Search for Another Location

Airport or City:

Trip Planner

Search our weather history database for the weather conditions in past years. The results will help you decide how hot, cold, wet, or windy it might be!

Date:

Astronomy

Jan. 06, 2011 Rise Set
Actual Time 6:51 AM PST 4:52 PM PST
Civil Twilight 6:24 AM PST 5:19 PM PST
Nautical Twilight 5:53 AM PST 5:50 PM PST
Astronomical Twilight 5:22 AM PST 6:20 PM PST
Moon 8:16 AM PST (1/6) 7:25 PM PST (1/6)
Length of Visible Light 10h 55m
Length of Day
10h 00m
Waxing Crescent, 6% of the Moon is Illuminated
Jan 6
Waxing Crescent
Jan 12
First Quarter
Jan 19
Full
Jan 26
Last Quarter
Feb 2
New

Hourly Weather History & Observations

Time (PST) Temp. Windchill Dew Point Humidity Pressure Visibility Wind Dir Wind Speed Gust Speed Precip Events Conditions
12:53 AM 45.0 °F 42.6 °F 30.9 °F 58% 30.24 in 10.0 mi NW 4.6 mph - N/A   Clear
1:53 AM 45.0 °F 41.2 °F 28.9 °F 53% 30.24 in 10.0 mi NNW 6.9 mph - N/A   Clear
2:53 AM 46.0 °F 43.9 °F 28.0 °F 50% 30.22 in 10.0 mi NNW 4.6 mph - N/A   Clear
3:53 AM 44.1 °F 42.5 °F 28.9 °F 55% 30.21 in 10.0 mi NNW 3.5 mph - N/A   Clear
4:53 AM 45.0 °F 40.6 °F 28.9 °F 53% 30.21 in 10.0 mi NW 8.1 mph - N/A   Clear
5:53 AM 43.0 °F - 30.9 °F 62% 30.21 in 10.0 mi Calm Calm - N/A   Clear
6:53 AM 45.0 °F 41.8 °F 28.0 °F 52% 30.22 in 10.0 mi NNW 5.8 mph - N/A   Mostly Cloudy
7:53 AM 43.0 °F - 30.9 °F 62% 30.23 in 10.0 mi Calm Calm - N/A   Clear
8:53 AM 51.1 °F - 28.0 °F 41% 30.25 in 10.0 mi Calm Calm - N/A   Mostly Cloudy
9:53 AM 57.0 °F - 24.1 °F 28% 30.25 in 10.0 mi Calm Calm - N/A   Clear
10:53 AM 61.0 °F - 21.9 °F 22% 30.22 in 10.0 mi Calm Calm - N/A   Scattered Clouds
11:53 AM 64.9 °F - 19.9 °F 18% 30.18 in 10.0 mi East 3.5 mph - N/A   Clear
12:53 PM 64.9 °F - 19.9 °F 18% 30.14 in 10.0 mi Variable 4.6 mph - N/A   Clear
1:53 PM 66.9 °F - 15.1 °F 14% 30.12 in 10.0 mi Variable 3.5 mph - N/A   Clear
2:53 PM 66.9 °F - 18.0 °F 15% 30.12 in 10.0 mi East 6.9 mph - N/A   Clear
3:53 PM 64.9 °F - 21.9 °F 19% 30.11 in 10.0 mi East 5.8 mph - N/A   Mostly Cloudy
4:53 PM 62.1 °F - 25.0 °F 24% 30.10 in 10.0 mi Calm Calm - N/A   Mostly Cloudy
5:53 PM 59.0 °F - 30.0 °F 33% 30.10 in 10.0 mi Calm Calm - N/A   Clear
6:53 PM 57.9 °F - 30.9 °F 36% 30.11 in 10.0 mi Calm Calm - N/A   Clear
7:53 PM 55.9 °F - 34.0 °F 44% 30.12 in 10.0 mi Calm Calm - N/A   Clear
8:53 PM 55.0 °F - 35.1 °F 47% 30.12 in 10.0 mi WSW 3.5 mph - N/A   Clear
9:53 PM 54.0 °F - 37.0 °F 53% 30.11 in 10.0 mi NNW 5.8 mph - N/A   Clear
10:53 PM 54.0 °F - 32.0 °F 43% 30.11 in 10.0 mi SW 3.5 mph - N/A   Partly Cloudy
11:53 PM 52.0 °F - 35.1 °F 53% 30.08 in 10.0 mi Calm Calm - N/A   Scattered Clouds